[[{"header":{"parameterUnit":"m.s-1","parameterCategory":1,"la1":30.2991,"la2":30.254,"lo1":-89.0895,"lo2":-89.0444,"dx":0.0017,"dy":0.0017,"nx":28,"ny":28,"refTime":"2023-01-20T09:00:00:Z","depth":0,"parameterNumber":2,"parameterNumberName":"U-component_of_WINDS"},"data":[0,0,0,0,0,0,0,0,0,0,0,0,0,0,0,0,0,0,0,0,0,0,0,0,0,0,0,0,0,0,0,0,0,0,0,0,0,0,0,0,0,0,0,0,0,0,0,0,0,0,0,0,0,0,0,0,0,0,-1.2053,-1.2054,0,-1.2144,-1.2145,-1.2146,-1.2108,-1.2106,-1.2103,-1.2101,-1.2201,-1.2205,-1.221,0,0,0,0,0,0,0,0,0,0,0,0,0,-1.1852,-1.1856,-1.2053,-1.2054,-1.2055,-1.2144,-1.2145,-1.2146,-1.2108,-1.2105,-1.2103,-1.21,-1.2199,-1.2205,-1.221,0,0,0,0,0,0,0,0,0,0,0,0,0,-1.1941,-1.1857,-1.2053,-1.2047,-1.2047,-1.2143,-1.2145,-1.2146,-1.2109,-1.2105,-1.2102,-1.2099,-1.2197,-1.2204,-1.2211,-1.232,0,0,-1.2232,-1.2235,0,0,0,0,0,0,0,0,-1.1936,-1.1948,-1.2046,-1.2047,-1.2048,-1.2111,-1.211,-1.2205,-1.211,-1.2086,-1.2101,-1.2097,-1.2174,-1.2183,-1.2207,-1.2325,-1.2329,-1.2233,-1.2237,-1.224,-1.2242,0,0,0,0,0,0,0,-1.193,-1.1944,-1.2089,-1.2048,-1.2049,-1.2041,-1.205,-1.2128,-1.2147,-1.2087,-1.2085,-1.2096,-1.2174,-1.22,-1.2209,-1.2331,-1.2233,-1.2239,-1.2243,-1.2246,-1.2545,-1.2548,0,0,0,0,0,0,-1.1923,-1.1939,-1.2086,-1.2092,-1.1982,-1.2048,-1.2058,-1.2094,-1.2146,-1.2151,-1.2098,-1.2094,-1.219,-1.2201,-1.2212,-1.2346,-1.224,-1.2247,-1.2251,-1.2541,-1.2546,-1.255,0,0,0,0,0,0,-1.1919,-1.1936,-1.2082,-1.2015,-1.2033,-1.2054,-1.2096,-1.2098,-1.2124,-1.2154,-1.2158,-1.2122,-1.2188,-1.2203,-1.2294,-1.2348,-1.225,-1.2256,-1.2537,-1.2543,-1.2548,-1.2612,0,0,0,0,0,0,-1.1913,-1.1935,-1.1975,-1.2016,-1.2037,-1.2161,-1.2099,-1.2102,-1.2136,-1.213,-1.2178,-1.2182,-1.2186,-1.2283,-1.2301,-1.2356,-1.2262,-1.2532,-1.2539,-1.2546,-1.2605,-1.2619,-1.2631,0,0,0,0,0,-1.1906,-1.1991,-1.1978,-1.1996,-1.2087,-1.2164,-1.2176,-1.2177,-1.214,-1.2182,-1.2202,-1.2181,-1.2339,-1.2293,-1.2312,-1.2371,-1.2529,-1.2537,-1.2545,-1.2599,-1.2616,-1.263,0,0,0,0,0,0,-1.1958,-1.1996,-1.1982,-1.2082,-1.212,-1.2157,-1.221,-1.2195,-1.2245,-1.2238,-1.2239,-1.225,-1.2345,-1.2367,-1.2315,-1.248,-1.2429,-1.2441,-1.2463,-1.2479,-1.2492,-1.2486,-1.2268,0,0,0,0,0,-1.1981,-1.2038,-1.2069,-1.2154,-1.2174,-1.2189,-1.2222,-1.2219,-1.2259,-1.2276,-1.2302,-1.2343,-1.2403,-1.2442,-1.2498,-1.2607,-1.2618,-1.2657,-1.267,-1.268,-1.2692,-1.2753,-1.2771,-1.2577,-1.2577,-1.2577,0,0,-1.203,-1.2057,-1.2094,-1.2165,-1.2194,-1.2256,-1.2203,-1.2269,-1.2316,-1.2287,-1.2375,-1.2395,-1.2441,-1.2543,-1.2588,-1.2564,-1.2747,-1.2691,-1.2699,-1.2705,-1.2764,-1.2782,-1.2798,-1.2583,-1.2582,-1.2581,0,0,-1.215,-1.2175,-1.225,-1.228,-1.2324,-1.2333,-1.2351,-1.2391,-1.2403,-1.249,-1.247,-1.2526,-1.2627,-1.2661,-1.2692,-1.2825,-1.2808,-1.2843,-1.2912,-1.2971,-1.2987,-1.3,-1.305,-1.3068,-1.2854,-1.2854,-1.2854,0,-1.2206,-1.2295,-1.2291,-1.236,-1.2393,-1.2367,-1.2444,-1.2473,-1.2534,-1.2559,-1.2529,-1.2656,-1.2685,-1.2795,-1.2827,-1.2852,-1.2875,-1.2839,-1.2984,-1.2998,-1.3011,-1.3058,-1.3077,-1.2858,-1.2858,-1.2857,-1.2857,0,-1.2362,-1.2425,-1.248,-1.2538,-1.2577,-1.2649,-1.2658,-1.2698,-1.2692,-1.2705,-1.2796,-1.2829,-1.2893,-1.2918,-1.2913,-1.3028,-1.3011,-1.2983,-1.2932,-1.3033,-1.3078,-1.3096,-1.2864,-1.2863,-1.2861,-1.286,0,0,-1.252,-1.2573,-1.2594,-1.262,-1.2666,-1.2716,-1.2788,-1.2847,-1.2883,-1.2925,-1.2988,-1.3073,-1.3048,-1.3083,-1.3081,-1.3133,-1.3239,-1.3099,-1.31,-1.3126,-1.337,-1.3393,-1.3414,-1.3227,-1.3231,-1.3233,-1.3367,0,-1.2646,-1.277,-1.2768,-1.2884,-1.2943,-1.2919,-1.2982,-1.3019,-1.3033,-1.3086,-1.3102,-1.3164,-1.3124,-1.3145,-1.3195,-1.3216,-1.3289,-1.3206,-1.3288,-1.3291,-1.328,-1.3437,-1.3461,-1.3586,-1.3384,-1.3387,-1.3389,0,-1.2809,-1.2855,-1.2977,-1.3015,-1.304,-1.3096,-1.3151,-1.3201,-1.3243,-1.3249,-1.3288,-1.3279,-1.3354,-1.3298,-1.3404,-1.3347,-1.338,-1.3396,-1.34,-1.3411,-1.3348,-1.3454,-1.3625,-1.3645,-1.3416,-1.3414,-1.3412,0,-1.2915,-1.3008,-1.3093,-1.3115,-1.3161,-1.3202,-1.3223,-1.3261,-1.3297,-1.3346,-1.337,-1.3427,-1.3459,-1.3505,-1.3512,-1.347,-1.3619,-1.3563,-1.3629,-1.3629,-1.3663,-1.3662,-1.3845,-1.368,-1.368,-1.368,-1.3679,0,-1.3057,-1.3133,-1.3141,-1.3194,-1.3279,-1.3276,-1.3361,-1.3379,-1.3413,-1.347,-1.3453,-1.3508,-1.3512,-1.3569,-1.3575,-1.3663,-1.3677,-1.3686,-1.3688,-1.369,-1.3689,-1.3714,-1.3706,-1.3685,-1.3684,-1.3683,-1.3682,0,-1.3191,-1.3199,-1.329,-1.3325,-1.3336,-1.3398,-1.3429,-1.348,-1.3492,-1.3565,-1.3582,-1.3601,-1.3667,-1.3677,-1.3755,-1.376,-1.3865,-1.3856,-1.3851,-1.3851,-1.3917,-1.3912,-1.4126,-1.4155,-1.3968,-1.397,-1.3971,0,-1.3282,-1.334,-1.3381,-1.3417,-1.344,-1.3499,-1.3535,-1.3535,-1.3574,-1.3626,-1.3672,-1.3735,-1.3786,-1.3893,-1.3916,-1.3976,-1.397,-1.404,-1.3979,-1.3979,-1.3974,-1.3972,-1.3979,-1.4053,-1.4055,-1.4057,-1.4058,0,-1.3444,-1.3445,-1.3497,-1.3551,-1.3595,-1.3638,-1.3679,-1.371,-1.3715,-1.376,-1.3827,-1.3866,-1.3945,-1.401,-1.4069,-1.4093,-1.4079,-1.4077,-1.4096,-1.41,-1.4096,-1.4102,-1.3887,-1.4073,-1.4071,-1.407,-1.407,-1.4069,-1.3562,-1.3612,-1.3649,-1.3708,-1.3738,-1.3777,-1.3827,-1.3844,-1.3898,-1.3962,-1.3958,-1.4032,-1.4073,-1.4151,-1.4179,-1.4238,-1.4215,-1.4242,-1.425,-1.4257,-1.4265,-1.4084,-1.4248,-1.4248,-1.4248,-1.4247,-1.4247,0,-1.3725,-1.3747,-1.3801,-1.3858,-1.3905,-1.3883,-1.3927,-1.3969,-1.4033,-1.4071,-1.4121,-1.4199,-1.4261,-1.4287,-1.4349,-1.4392,-1.4386,-1.4408,-1.4407,-1.4413,-1.428,-1.4258,-1.4411,-1.4411,-1.4411,-1.4411,-1.4411,-1.4411,-1.3816,-1.3901,-1.3907,-1.4007,-1.4029,-1.41,-1.4127,-1.4163,-1.4194,-1.428,-1.4331,-1.4346,-1.4381,-1.4445,-1.4502,-1.4508,-1.4533,-1.4559,-1.4563,-1.4439,-1.4422,-1.4406,-1.4386,-1.4564,-1.4564,-1.4691,-1.4692,-1.4693]},{"header":{"parameterUnit":"m.s-1","parameterCategory":1,"la1":30.2991,"la2":30.254,"lo1":-89.0895,"lo2":-89.0444,"dx":0.0017,"dy":0.0017,"nx":28,"ny":28,"refTime":"2023-01-20T09:00:00:Z","depth":0,"parameterNumber":3,"parameterNumberName":"V-component_of_WINDS"},"data":[0,0,0,0,0,0,0,0,0,0,0,0,0,0,0,0,0,0,0,0,0,0,0,0,0,0,0,0,0,0,0,0,0,0,0,0,0,0,0,0,0,0,0,0,0,0,0,0,0,0,0,0,0,0,0,0,0,0,-3.9839,-3.9839,0,-3.9842,-3.9842,-3.9842,-3.9755,-3.9753,-3.9751,-3.9748,-3.9751,-3.9753,-3.9755,0,0,0,0,0,0,0,0,0,0,0,0,0,-3.9757,-3.9759,-3.9839,-3.9839,-3.984,-3.9842,-3.9842,-3.9842,-3.9756,-3.9753,-3.975,-3.9747,-3.975,-3.9753,-3.9755,0,0,0,0,0,0,0,0,0,0,0,0,0,-3.978,-3.976,-3.9839,-3.9797,-3.9793,-3.9842,-3.9842,-3.9842,-3.9756,-3.9753,-3.9749,-3.9746,-3.9749,-3.9752,-3.9756,-3.9846,0,0,-3.9766,-3.9767,0,0,0,0,0,0,0,0,-3.9779,-3.9783,-3.9803,-3.98,-3.9795,-3.9795,-3.9814,-3.9844,-3.9757,-3.977,-3.9748,-3.9744,-3.9768,-3.977,-3.9778,-3.9846,-3.9846,-3.9766,-3.9768,-3.977,-3.9771,0,0,0,0,0,0,0,-3.9777,-3.9782,-3.984,-3.9803,-3.9799,-3.9777,-3.9776,-3.9819,-3.9789,-3.9769,-3.9762,-3.9764,-3.9765,-3.9775,-3.9777,-3.9846,-3.9766,-3.9769,-3.9771,-3.9772,-3.9989,-3.9992,0,0,0,0,0,0,-3.9782,-3.9782,-3.984,-3.9841,-3.9778,-3.9781,-3.978,-3.9799,-3.9788,-3.9783,-3.9767,-3.976,-3.9771,-3.9773,-3.9777,-3.9882,-3.977,-3.9773,-3.9775,-3.9985,-3.9989,-3.9993,0,0,0,0,0,0,-3.978,-3.9788,-3.984,-3.9809,-3.9814,-3.9786,-3.9807,-3.98,-3.981,-3.9787,-3.9781,-3.9782,-3.9768,-3.9772,-3.983,-3.9881,-3.9774,-3.9777,-3.9981,-3.9986,-3.9991,-4.0093,0,0,0,0,0,0,-3.9778,-3.9788,-3.9822,-3.9811,-3.9816,-3.9894,-3.9811,-3.9803,-3.9816,-3.9807,-3.9799,-3.9795,-3.9766,-3.9825,-3.9833,-3.9884,-3.978,-3.9976,-3.9983,-3.999,-4.0085,-4.0102,-4.0116,0,0,0,0,0,-3.9776,-3.9851,-3.9825,-3.9832,-3.9859,-3.9897,-3.99,-3.9865,-3.982,-3.9855,-3.984,-3.9795,-3.9874,-3.9832,-3.984,-3.9892,-3.9972,-3.9981,-3.9989,-4.0078,-4.0098,-4.0115,0,0,0,0,0,0,-3.9869,-3.9848,-3.9819,-3.9893,-3.9897,-3.9882,-3.9924,-3.9887,-3.9904,-3.9895,-3.9851,-3.985,-3.9914,-3.9909,-3.9862,-3.9979,-3.9915,-3.9926,-3.998,-3.9999,-4.0014,-4.0014,-3.9783,0,0,0,0,0,-3.9898,-3.993,-3.9911,-3.9978,-3.9981,-3.9953,-3.9968,-3.994,-3.9943,-3.9944,-3.9933,-3.9937,-3.9963,-3.9981,-4.0003,-4.0084,-4.0081,-4.0124,-4.0139,-4.0152,-4.0161,-4.0203,-4.0222,-4.0021,-4.0021,-4.0021,0,0,-3.9958,-3.9951,-3.9974,-3.9996,-3.9996,-4.0031,-3.9955,-3.9994,-4.0019,-3.995,-4.0003,-3.9996,-3.9997,-4.0067,-4.0097,-4.0064,-4.0216,-4.0163,-4.0173,-4.0175,-4.0214,-4.0233,-4.025,-4.0027,-4.0026,-4.0025,0,0,-4.0086,-4.0084,-4.0139,-4.0141,-4.0142,-4.0122,-4.0136,-4.0126,-4.0119,-4.0171,-4.012,-4.0149,-4.0194,-4.0197,-4.0205,-4.0333,-4.0293,-4.0342,-4.0422,-4.0463,-4.0479,-4.0493,-4.0538,-4.0555,-4.0351,-4.0352,-4.0352,0,-4.0161,-4.0211,-4.0172,-4.0215,-4.0226,-4.0166,-4.0221,-4.0224,-4.0233,-4.0242,-4.0205,-4.026,-4.0257,-4.0326,-4.0358,-4.0366,-4.0379,-4.0342,-4.048,-4.0493,-4.0506,-4.0549,-4.0566,-4.0358,-4.0357,-4.0356,-4.0356,0,-4.0302,-4.0338,-4.0382,-4.0392,-4.0408,-4.0457,-4.0426,-4.0446,-4.0418,-4.0402,-4.0457,-4.045,-4.047,-4.0485,-4.0457,-4.055,-4.053,-4.0488,-4.0422,-4.0531,-4.0571,-4.0587,-4.0366,-4.0364,-4.0362,-4.0361,0,0,-4.0489,-4.0477,-4.0494,-4.0497,-4.0494,-4.052,-4.0567,-4.0586,-4.0605,-4.0612,-4.065,-4.0689,-4.065,-4.0659,-4.0631,-4.0667,-4.0769,-4.062,-4.0619,-4.0648,-4.0871,-4.0903,-4.0923,-4.0743,-4.0746,-4.0748,-4.0871,0,-4.0612,-4.069,-4.0657,-4.0739,-4.0771,-4.0713,-4.0753,-4.0756,-4.0742,-4.0767,-4.0752,-4.078,-4.0726,-4.0731,-4.0765,-4.075,-4.0814,-4.0741,-4.0777,-4.0778,-4.0778,-4.0943,-4.0977,-4.1093,-4.0886,-4.0889,-4.0891,0,-4.0767,-4.0781,-4.0866,-4.0857,-4.0869,-4.0906,-4.0921,-4.0945,-4.0947,-4.0934,-4.0944,-4.0908,-4.0952,-4.0888,-4.0948,-4.0899,-4.0912,-4.0907,-4.091,-4.0912,-4.0841,-4.095,-4.113,-4.1147,-4.0915,-4.0913,-4.0911,0,-4.0894,-4.0934,-4.099,-4.0995,-4.0986,-4.1013,-4.101,-4.1008,-4.1022,-4.1035,-4.1044,-4.1062,-4.1072,-4.1087,-4.1056,-4.1012,-4.1121,-4.1054,-4.1111,-4.1112,-4.1137,-4.1135,-4.1321,-4.1146,-4.1145,-4.1145,-4.1145,0,-4.1035,-4.1089,-4.1047,-4.1081,-4.114,-4.1101,-4.116,-4.1151,-4.115,-4.1181,-4.1133,-4.1163,-4.1122,-4.1148,-4.1124,-4.1178,-4.1183,-4.1173,-4.1167,-4.1178,-4.1179,-4.1185,-4.1176,-4.1149,-4.1148,-4.1148,-4.1147,0,-4.1187,-4.1161,-4.1218,-4.1204,-4.1202,-4.1246,-4.1235,-4.1266,-4.1249,-4.1289,-4.1296,-4.1269,-4.1298,-4.1269,-4.1296,-4.128,-4.1351,-4.1333,-4.1351,-4.1346,-4.1405,-4.14,-4.1601,-4.1625,-4.1435,-4.1436,-4.1438,0,-4.1278,-4.1319,-4.131,-4.1327,-4.1328,-4.1357,-4.1371,-4.1334,-4.135,-4.1355,-4.1385,-4.141,-4.1427,-4.1475,-4.1458,-4.1478,-4.1459,-4.1529,-4.1462,-4.1472,-4.146,-4.1458,-4.1462,-4.1542,-4.1545,-4.1546,-4.1548,0,-4.1444,-4.1429,-4.1451,-4.1469,-4.1487,-4.1499,-4.1507,-4.1525,-4.1486,-4.1507,-4.1536,-4.155,-4.1577,-4.1601,-4.1616,-4.1613,-4.1575,-4.1569,-4.1583,-4.1595,-4.1604,-4.16,-4.1388,-4.1564,-4.1563,-4.1562,-4.1561,-4.156,-4.1568,-4.1601,-4.16,-4.1626,-4.1628,-4.1637,-4.1666,-4.1653,-4.1676,-4.1695,-4.1672,-4.1707,-4.1707,-4.1723,-4.1724,-4.1751,-4.1722,-4.1743,-4.1748,-4.1754,-4.1762,-4.16,-4.1754,-4.1753,-4.1753,-4.1752,-4.1752,0,-4.1731,-4.1727,-4.1752,-4.1765,-4.1786,-4.1747,-4.1755,-4.1774,-4.1806,-4.1809,-4.1827,-4.186,-4.1884,-4.1869,-4.1889,-4.1913,-4.1896,-4.192,-4.1918,-4.1918,-4.1787,-4.1773,-4.1934,-4.1934,-4.1934,-4.1934,-4.1933,-4.1933,-4.1818,-4.1872,-4.1857,-4.1911,-4.1907,-4.1941,-4.1949,-4.1956,-4.1959,-4.1998,-4.2017,-4.2007,-4.2003,-4.2022,-4.2043,-4.2037,-4.2047,-4.2077,-4.2066,-4.1945,-4.1927,-4.191,-4.1896,-4.208,-4.208,-4.2194,-4.2195,-4.2196]}]]